TimeCDT,TemperatureF,Dew PointF,Humidity,Sea Level PressureIn,VisibilityMPH,Wind Direction,Wind SpeedMPH,Gust SpeedMPH,PrecipitationIn,Events,Conditions,WindDirDegrees,DateUTC
12:53 AM,75.9,71.1,85,30.00,10.0,SE,6.9,-,N/A,,Clear,130,2013-08-23 05:53:00
1:53 AM,75.9,69.1,79,29.99,10.0,ESE,4.6,-,N/A,,Clear,120,2013-08-23 06:53:00
2:53 AM,75.0,68.0,79,29.99,10.0,ESE,5.8,-,N/A,,Partly Cloudy,110,2013-08-23 07:53:00
3:53 AM,75.0,68.0,79,29.99,10.0,ESE,4.6,-,N/A,,Clear,120,2013-08-23 08:53:00
4:53 AM,73.0,68.0,84,29.99,10.0,SE,5.8,-,N/A,,Clear,130,2013-08-23 09:53:00
5:53 AM,73.9,66.9,79,29.99,10.0,SE,4.6,-,N/A,,Clear,140,2013-08-23 10:53:00
6:53 AM,73.0,68.0,84,30.00,10.0,East,3.5,-,N/A,,Scattered Clouds,90,2013-08-23 11:53:00
7:53 AM,75.0,69.1,82,30.01,9.0,East,4.6,-,N/A,,Scattered Clouds,100,2013-08-23 12:53:00
8:53 AM,79.0,70.0,74,30.02,10.0,ESE,6.9,-,N/A,,Scattered Clouds,120,2013-08-23 13:53:00
9:53 AM,84.9,71.1,63,30.03,10.0,SSE,3.5,-,N/A,,Mostly Cloudy,160,2013-08-23 14:53:00
10:53 AM,81.0,70.0,69,30.03,10.0,SSE,13.8,-,N/A,,Mostly Cloudy,160,2013-08-23 15:53:00
11:53 AM,86.0,71.1,61,30.03,10.0,SSW,9.2,-,N/A,,Mostly Cloudy,210,2013-08-23 16:53:00
12:53 PM,82.9,70.0,65,30.02,10.0,South,6.9,-,N/A,,Mostly Cloudy,190,2013-08-23 17:53:00
1:53 PM,87.1,70.0,57,30.00,10.0,SSE,8.1,-,N/A,,Mostly Cloudy,160,2013-08-23 18:53:00
2:53 PM,89.1,71.1,55,29.98,10.0,South,9.2,-,N/A,,Mostly Cloudy,190,2013-08-23 19:53:00
3:53 PM,91.9,70.0,48,29.96,10.0,ESE,5.8,-,N/A,,Scattered Clouds,110,2013-08-23 20:53:00
4:53 PM,91.0,70.0,50,29.96,10.0,ESE,5.8,-,N/A,,Mostly Cloudy,120,2013-08-23 21:53:00
5:53 PM,90.0,73.0,57,29.95,10.0,ESE,19.6,-,N/A,,Mostly Cloudy,120,2013-08-23 22:53:00
6:53 PM,88.0,69.1,53,29.94,10.0,SE,11.5,-,N/A,,Mostly Cloudy,130,2013-08-23 23:53:00
7:53 PM,82.9,68.0,60,29.95,10.0,ESE,9.2,-,N/A,,Mostly Cloudy,110,2013-08-24 00:53:00
8:53 PM,80.1,69.1,69,29.96,10.0,ESE,4.6,-,N/A,,Mostly Cloudy,120,2013-08-24 01:53:00
9:53 PM,79.0,69.1,72,29.98,10.0,SE,5.8,-,N/A,,Scattered Clouds,130,2013-08-24 02:53:00
10:53 PM,78.1,68.0,71,29.99,10.0,SE,5.8,-,N/A,,Scattered Clouds,140,2013-08-24 03:53:00
11:53 PM,75.9,69.1,79,29.99,10.0,SE,5.8,-,N/A,,Clear,130,2013-08-24 04:53:00